Stations météo

Publicité
Aerodrome Albert-Bray, France (7059): Température de l'air & dewpoint: 13.03.2019 16:00:00 - 19.03.2019 16:00:00 (CET)Aerodrome Albert-Bray, France (7059): Vitesse du vent & gusts: 13.03.2019 16:00:00 - 19.03.2019 16:00:00 (CET)Aerodrome Albert-Bray, France (7059): Direction du vent: 13.03.2019 16:00:00 - 19.03.2019 16:00:00 (CET)Aerodrome Albert-Bray, France (7059): reduced air pressure: 13.03.2019 16:00:00 - 19.03.2019 16:00:00 (CET)Aerodrome Albert-Bray, France (7059): visibility: 13.03.2019 16:00:00 - 19.03.2019 16:00:00 (CET)Aerodrome Albert-Bray, France (7059): Quantités de précipitations: 13.03.2019 16:00:00 - 19.03.2019 16:00:00 (CET)
Date & Time tt [°C] td [°C] ff [km/h] ff [knt] fx [km/h] fx [knt] dd ppp [hPa] vv [km] rr [mm]
19.03.2019 16:00:00 - - - - - - - - - -
19.03.2019 15:00:00 10,8 3,1 8 4 19 10 SW 1029,3 10 0,0
19.03.2019 14:00:00 11,1 2,1 11 6 19 10 SW 1029,4 52 0,0
19.03.2019 13:00:00 10,8 3,6 11 6 23 12 SW 1029,6 10 0,0
19.03.2019 12:00:00 9,7 4,7 9 5 25 13 WSW 1029,7 10 0,0
19.03.2019 11:00:00 6,9 6,6 5 3 10 6 S 1029,6 5 0,0
19.03.2019 10:00:00 4,0 3,7 4 2 8 5 - 1029,3 0,3 0,0
19.03.2019 09:00:00 2,3 2,0 5 3 8 4 SSE 1028,9 0,3 0,2
19.03.2019 08:00:00 0,2 -0,1 5 3 6 3 SSE 1028,5 0,1 0,0
19.03.2019 07:00:00 1,2 0,9 5 3 6 4 SSW 1027,8 0,5 0,0
19.03.2019 06:00:00 1,2 0,8 4 2 6 3 SSE 1027,6 0,3 0,0
19.03.2019 05:00:00 1,9 1,5 6 3 7 4 SW 1027,2 0,5 0,0
19.03.2019 04:00:00 1,3 0,7 4 2 8 5 SSE 1027,0 0,8 0,0
19.03.2019 03:00:00 3,1 2,4 5 3 8 4 WSW 1026,3 10 0,0
19.03.2019 02:00:00 2,9 2,0 4 2 6 4 S 1026,6 10 0,0
19.03.2019 01:00:00 2,9 1,9 4 2 5 3 - 1026,2 10 0,0
19.03.2019 00:00:00 4,3 2,6 6 3 8 4 WSW 1025,9 18 0,0
18.03.2019 23:00:00 4,1 2,4 4 2 11 6 WSW 1025,7 10 0,0
18.03.2019 22:00:00 4,5 2,2 9 5 14 7 WNW 1025,3 10 0,0
18.03.2019 21:00:00 4,8 1,6 9 5 16 9 W 1024,7 43 0,0
18.03.2019 20:00:00 5,8 1,7 11 6 21 12 WNW 1024,2 10 0,0
18.03.2019 19:00:00 7,2 1,7 15 8 25 13 WNW 1023,5 10 0,0
18.03.2019 18:00:00 8,7 1,8 16 9 30 16 W 1022,6 10 0,0
18.03.2019 17:00:00 9,7 1,6 22 12 37 20 WNW 1022,2 10 0,0
18.03.2019 16:00:00 9,2 0,1 27 14 40 22 WNW 1022,0 51 0,0
18.03.2019 15:00:00 9,4 2,0 28 15 41 22 WNW 1021,9 20 0,0
18.03.2019 14:00:00 9,6 3,8 24 13 37 20 WNW 1021,7 10 0,0
18.03.2019 13:00:00 8,7 2,3 22 12 42 23 WNW 1021,7 10 0,0
18.03.2019 12:00:00 8,4 4,0 21 11 35 19 WNW 1021,6 10 0,0
18.03.2019 11:00:00 7,7 3,9 16 9 31 17 WNW 1021,4 20 0,2
18.03.2019 10:00:00 6,2 5,5 18 10 29 15 NW 1020,8 10 0,8
18.03.2019 09:00:00 4,8 4,5 9 5 13 7 W 1020,2 10 0,4
18.03.2019 08:00:00 3,1 2,8 9 5 13 7 WNW 1019,6 10 0,2
18.03.2019 07:00:00 2,7 2,4 9 5 16 9 WNW 1018,8 38 0,0
18.03.2019 06:00:00 2,3 2,0 13 7 17 9 W 1018,1 20 0,2
18.03.2019 05:00:00 3,0 2,7 9 5 15 8 W 1017,3 10 0,4
18.03.2019 04:00:00 3,1 2,8 11 6 17 9 W 1016,8 32 0,4
18.03.2019 03:00:00 3,2 2,9 13 7 19 11 WSW 1016,3 10 0,8
18.03.2019 02:00:00 3,2 2,9 11 6 19 11 WSW 1015,6 36 0,8
18.03.2019 01:00:00 2,2 1,9 11 6 17 9 SSW 1015,3 12 0,6
18.03.2019 00:00:00 1,9 1,6 14 8 23 13 S 1015,2 42 2,1
17.03.2019 23:00:00 1,4 0,7 9 5 40 22 WNW 1015,2 4,7 4,6
17.03.2019 22:00:00 3,9 1,3 17 9 32 17 NW 1014,8 60 0,0
17.03.2019 21:00:00 4,7 2,1 22 12 32 17 SW 1013,6 10 0,0
17.03.2019 20:00:00 5,1 0,8 24 13 37 20 WSW 1012,9 60 0,0
17.03.2019 19:00:00 6,0 0,5 26 14 40 22 W 1012,2 10 0,0
17.03.2019 18:00:00 6,7 1,0 26 14 56 30 W 1011,4 57 0,0
17.03.2019 17:00:00 7,9 0,1 39 21 62 34 W 1010,2 50 0,0
17.03.2019 16:00:00 7,5 3,0 35 19 57 31 WSW 1009,8 55 0,0
17.03.2019 15:00:00 8,5 2,7 36 19 50 27 W 1009,1 29 0,0
17.03.2019 14:00:00 6,4 3,7 25 13 53 29 WSW 1008,7 20 0,2
17.03.2019 13:00:00 6,1 3,1 28 15 80 43 WSW 1008,6 49 0,4
17.03.2019 12:00:00 7,0 3,6 29 16 58 31 WSW 1007,5 10 0,6
17.03.2019 11:00:00 8,1 3,5 31 17 48 26 W 1006,7 10 1,8
17.03.2019 10:00:00 6,9 2,6 29 16 48 26 W 1006,1 10 0,4
17.03.2019 09:00:00 7,1 4,1 26 14 34 18 W 1005,1 10 0,0
17.03.2019 08:00:00 5,9 3,4 21 11 49 27 W 1004,2 10 0,0
17.03.2019 07:00:00 6,4 4,7 21 11 32 18 W 1003,3 10 0,0
17.03.2019 06:00:00 6,7 4,9 22 12 55 30 W 1002,3 10 0,2
17.03.2019 05:00:00 7,6 6,1 34 18 56 31 W 1001,8 7 1,0
17.03.2019 04:00:00 8,7 5,8 35 19 57 31 SW 1000,6 10 0,0
17.03.2019 03:00:00 9,1 4,9 41 22 63 34 SW 1000,7 10 0,0
17.03.2019 02:00:00 9,0 4,4 39 21 55 30 SSW 1001,1 10 0,0
17.03.2019 01:00:00 9,0 4,2 36 19 58 31 SSW 1002,0 53 0,0
17.03.2019 00:00:00 9,3 3,9 42 23 62 33 SW 1002,9 10 0,0
16.03.2019 23:00:00 9,8 4,2 44 24 63 34 SW 1004,4 10 0,0
16.03.2019 22:00:00 10,5 5,7 34 18 51 27 SW 1004,5 10 0,0
16.03.2019 21:00:00 11,0 5,7 35 19 58 31 SW 1004,9 10 0,0
16.03.2019 20:00:00 10,8 6,0 29 16 41 22 SW 1005,2 60 0,0
16.03.2019 19:00:00 11,5 6,0 26 14 53 29 SSW 1005,5 10 0,0
16.03.2019 18:00:00 13,0 6,3 33 18 61 33 SW 1005,8 44 0,0
16.03.2019 17:00:00 13,6 6,9 37 20 64 35 SW 1006,5 10 0,0
16.03.2019 16:00:00 13,2 6,5 37 20 58 31 SW 1007,5 46 0,0
16.03.2019 15:00:00 12,6 7,1 34 18 58 31 SW 1008,9 10 0,0
16.03.2019 14:00:00 11,7 6,6 35 19 53 28 SW 1010,1 60 0,0
16.03.2019 13:00:00 10,7 6,1 37 20 51 28 SW 1011,3 10 0,0
16.03.2019 12:00:00 10,2 6,5 35 19 57 31 SW 1012,0 48 0,0
16.03.2019 11:00:00 10,0 6,5 37 20 58 32 SW 1012,4 10 0,0
16.03.2019 10:00:00 10,1 7,3 34 18 48 26 SW 1012,8 10 0,0
16.03.2019 09:00:00 9,6 6,9 31 17 51 28 SW 1013,1 10 0,0
16.03.2019 08:00:00 9,4 7,0 29 16 50 27 WSW 1013,4 60 0,0
16.03.2019 07:00:00 9,4 7,7 37 20 59 32 WSW 1013,6 10 0,0
16.03.2019 06:00:00 9,8 7,7 28 15 48 26 SW 1013,6 53 0,0
16.03.2019 05:00:00 9,7 8,1 28 15 48 26 WSW 1013,8 10 0,0
16.03.2019 04:00:00 9,7 8,3 36 19 53 29 WSW 1014,2 18 0,0
16.03.2019 03:00:00 9,9 8,2 39 21 59 32 WSW 1014,7 55 0,0
16.03.2019 02:00:00 9,6 8,8 34 18 49 26 WSW 1015,3 5 0,2
16.03.2019 01:00:00 9,7 8,9 37 20 51 27 WSW 1015,4 4,2 0,8
16.03.2019 00:00:00 9,8 9,2 34 18 49 26 WSW 1015,4 2,8 0,8
15.03.2019 23:00:00 9,9 9,3 35 19 49 27 WSW 1015,0 4,1 1,2
15.03.2019 22:00:00 10,3 9,2 36 19 64 34 W 1014,7 1,9 0,4
15.03.2019 21:00:00 10,5 9,3 42 23 65 35 W 1014,3 9 0,4
15.03.2019 20:00:00 10,6 9,4 40 21 68 37 W 1013,7 2,5 0,0
15.03.2019 19:00:00 11,0 9,1 48 26 76 41 W 1013,2 9 0,0
15.03.2019 18:00:00 11,4 9,1 51 27 79 43 W 1012,6 15 0,0
15.03.2019 17:00:00 11,8 9,2 50 27 80 43 W 1012,3 10 0,0
15.03.2019 16:00:00 11,5 9,9 44 24 66 36 W 1012,3 10 0,0
15.03.2019 15:00:00 11,7 9,4 48 26 70 38 W 1012,1 9 0,0
15.03.2019 14:00:00 11,8 9,5 39 21 79 43 W 1012,1 20 0,0
15.03.2019 13:00:00 11,7 9,8 54 29 85 46 W 1012,0 10 0,0
15.03.2019 12:00:00 11,7 9,6 54 29 82 44 W 1011,6 8 0,0
15.03.2019 11:00:00 11,0 9,1 50 27 74 40 W 1011,5 10 0,0
15.03.2019 10:00:00 10,5 9,1 51 28 79 42 W 1011,3 6 0,0
15.03.2019 09:00:00 10,6 8,7 42 23 80 43 W 1010,7 10 0,0
15.03.2019 08:00:00 10,9 8,8 49 27 81 44 W 1010,0 20 0,0
15.03.2019 07:00:00 10,8 8,9 42 23 77 41 W 1009,3 20 0,0
15.03.2019 06:00:00 10,6 8,9 51 27 74 40 W 1008,9 14 0,0
15.03.2019 05:00:00 10,0 9,4 39 21 56 30 W 1009,1 9 1,4
15.03.2019 04:00:00 9,6 9,3 26 14 38 21 W 1009,6 2,3 2,0
15.03.2019 03:00:00 9,0 8,5 19 10 27 14 SW 1010,6 2,2 1,8
15.03.2019 02:00:00 9,4 8,0 15 8 35 19 W 1011,3 10 0,2
15.03.2019 01:00:00 8,5 7,1 16 9 23 12 W 1011,7 10 0,0
15.03.2019 00:00:00 8,0 6,3 13 7 29 16 WSW 1011,7 10 0,0
14.03.2019 23:00:00 8,2 6,3 21 11 30 16 W 1011,4 10 0,0
14.03.2019 22:00:00 8,1 6,1 18 10 42 23 W 1011,2 10 0,0
14.03.2019 21:00:00 9,2 6,5 26 14 44 24 WNW 1010,2 10 0,0
14.03.2019 20:00:00 9,6 6,9 31 17 61 33 WNW 1009,1 10 0,0
14.03.2019 19:00:00 10,4 7,3 37 20 62 33 WNW 1007,9 10 0,0
14.03.2019 18:00:00 10,7 7,6 42 23 76 41 WNW 1006,4 10 0,0
14.03.2019 17:00:00 11,2 8,4 46 25 79 43 WNW 1005,6 10 0,0
14.03.2019 16:00:00 11,6 8,6 59 32 92 50 W 1004,4 33 0,0
14.03.2019 15:00:00 11,3 8,9 61 33 93 50 W 1003,7 10 0,0
14.03.2019 14:00:00 10,5 8,8 57 31 88 47 W 1004,2 8 0,0
14.03.2019 13:00:00 9,6 8,5 54 29 81 44 W 1004,7 5 0,8
14.03.2019 12:00:00 8,8 8,0 45 25 61 33 W 1005,3 1,8 0,8
14.03.2019 11:00:00 8,2 7,3 38 21 59 32 WSW 1006,2 7 2,2
14.03.2019 10:00:00 7,4 6,5 37 20 54 29 SW 1007,2 7 2,3
14.03.2019 09:00:00 6,8 5,6 35 19 53 29 WSW 1008,4 10 1,4
14.03.2019 08:00:00 6,8 5,7 38 21 62 34 W 1009,9 6 1,8
14.03.2019 07:00:00 6,5 5,6 34 18 46 25 SW 1010,6 6 0,6
14.03.2019 06:00:00 6,2 5,3 28 15 39 21 SW 1012,0 7 0,8
14.03.2019 05:00:00 6,1 4,9 26 14 45 24 SW 1013,3 10 0,2
14.03.2019 04:00:00 6,3 4,1 28 15 55 30 W 1014,2 10 0,0
14.03.2019 03:00:00 7,2 4,3 28 15 40 22 W 1015,0 10 0,0
14.03.2019 02:00:00 6,7 4,0 26 14 40 21 W 1015,6 15 0,0
14.03.2019 01:00:00 6,4 3,5 28 15 42 23 W 1015,7 10 0,0
14.03.2019 00:00:00 6,6 3,2 22 12 42 23 W 1015,4 10 0,0
13.03.2019 23:00:00 7,2 3,1 28 15 48 26 W 1015,4 16 0,0
13.03.2019 22:00:00 7,3 3,0 28 15 46 25 W 1015,1 10 0,0
13.03.2019 21:00:00 7,7 3,2 31 17 61 33 W 1014,6 10 0,0
13.03.2019 20:00:00 8,2 3,2 37 20 63 34 W 1013,9 10 0,0
13.03.2019 19:00:00 8,4 3,2 35 19 64 34 W 1013,0 10 0,0
13.03.2019 18:00:00 8,5 3,5 41 22 78 42 W 1012,2 18 0,0
13.03.2019 17:00:00 9,2 3,8 46 25 77 41 W 1011,3 10 0,0
13.03.2019 16:00:00 8,8 4,0 44 24 76 41 W 1011,3 10 0,0

tt = Température de l'air
td = dewpoint
ff = Vitesse du vent
fx = gusts
dd = Direction du vent
ppp = reduced air pressure
vv = visibility
rr = Quantités de précipitations

stations d'obs. à proximité